Regional Weather Roundup
Issued by NWS

Home | Current Version | Previous Version | Text Only | Print | Product List | Glossary Off
Versions: 1 2 3 4 5 6 7 8 9 10 11 12 13 14 15 16 17 18 19 20 21 22 23 24 25 26 27 28 29 30 31 32 33 34 35 36 37 38 39 40 41 42 43 44 45 46 47 48 49 50

000
ASUS43 KLSX 232307
RWRMO

WEATHER SUMMARY FOR MISSOURI
NATIONAL WEATHER SERVICE SPRINGFIELD MO
600 PM CDT MON APR 23 2018

NOTE: "FAIR" INDICATES FEW OR NO CLOUDS BELOW 12,000 FEET WITH NO
       SIGNIFICANT WEATHER AND/OR OBSTRUCTIONS TO VISIBILITY.
       CURRENT SKY AND/OR WEATHER CONDITIONS ARE NOT AVAILABLE FOR
       CHILLICOTHE AND FARMINGTON.

MOZ001>031-035>038-043-044-053-054-240000-
...NORTHERN AND WESTERN MISSOURI...

CITY           SKY/WX    TMP DP  RH WIND       PRES   REMARKS
KANSAS CTY INT MOSUNNY   74  32  21 NE8       30.01F
KANSAS C DTWN  SUNNY     75  33  21 N12       29.99F
LEE`S SUMMIT   SUNNY     74  32  21 NE16      30.01S
ST JOSEPH      SUNNY     75  34  22 NE8G25    30.02F
CHILLICOTHE      N/A     74  32  21 E8        30.02S
KIRKSVILLE     CLOUDY    67  33  28 N14       30.03S

$$
MOZ066>068-077>081-088>096-101>105-240000-
...SOUTHWEST MISSOURI...

CITY           SKY/WX    TMP DP  RH WIND       PRES   REMARKS
SPRINGFIELD    CLOUDY    66  44  45 N15       29.96R
JOPLIN         PTSUNNY   70  41  34 N15G23    29.98S
BRANSON        CLOUDY    64  46  52 N10G21    29.96R

$$
MOZ032>034-039>042-045>050-055>058-069>072-240000-
...CENTRAL MISSOURI...

CITY           SKY/WX    TMP DP  RH WIND       PRES   REMARKS
COLUMBIA       CLOUDY    70  43  37 NE10G20   29.97R
JEFFERSON CITY CLOUDY    69  48  47 E7        29.96R
ROLLA          CLOUDY    60  51  72 NE10      29.98R
SEDALIA        CLOUDY    69  39  33 NE13      30.00S
WHITEMAN AFB   PTSUNNY   71  33  25 NE16G23   29.96S
WARRENSBURG    MOSUNNY   72  30  21 NE15G22   30.00S
OSAGE BEACH    CLOUDY    66  50  56 E6        29.98R

$$
MOZ051-052-059>065-240000-
...EAST CENTRAL MISSOURI...

CITY           SKY/WX    TMP DP  RH WIND       PRES   REMARKS
ST LOUIS INTL  CLOUDY    59  54  83 NE12      29.98S
SPIRIT OF STL  CLOUDY    60  54  80 NE9       29.97R
ST CHARLES     CLOUDY    61  54  77 E13       29.97R

$$
MOZ072>076-082>087-097>100-106>115-240000-
...SOUTH CENTRAL AND SOUTHEAST MISSOURI...

CITY           SKY/WX    TMP DP  RH WIND       PRES   REMARKS
CAPE GIRARDEAU PTSUNNY   60  56  86 SE8       29.90R
FARMINGTON     LGT RAIN  57  55  93 N9        29.94S
POPLAR BLUFF   FAIR      63  56  78 E5        29.89S
WEST PLAINS    CLOUDY    58  52  80 N15       29.95R

$$




USA.gov is the U.S. government's official web portal to all federal, state and local government web resources and services.